Weather History for Rockland, ME

Change the Weather History Date:

Wednesday, January 2, 2013

  Actual Average Record
Temperature  
Mean Temperature 11 °F -  
Max Temperature 19 °F 32 °F 46 °F (2012)
Min Temperature 3 °F 18 °F -7 °F (1999)
Degree Days  
Heating Degree Days 54    
Moisture  
Dew Point -3 °F    
Average Humidity 55    
Maximum Humidity 79    
Minimum Humidity 38    
Precipitation  
Precipitation 0.00 in - - ()
Sea Level Pressure  
Sea Level Pressure 29.87 in    
Wind  
Wind Speed 12 mph (WNW)    
Max Wind Speed 22 mph    
Max Gust Speed 32 mph    
Visibility 10 miles    
Events      
Averages and records for this station are not official NWS values.
T = Trace of Precipitation, MM = Missing Value Source: NWS Daily Summary

Daily Weather History Graph

Daily Weather History Graph

Search for Another Location

Airport:

Trip Planner

Search our weather history database for the weather conditions in past years. The results will help you decide how hot, cold, wet, or windy it might be!

Date:

Astronomy

Jan. 02, 2013 Rise Set
Actual Time 7:11 AM EST 4:10 PM EST
Civil Twilight 6:38 AM EST 4:42 PM EST
Nautical Twilight 6:02 AM EST 5:19 PM EST
Astronomical Twilight 5:27 AM EST 5:54 PM EST
Moon 9:51 PM EST (1/2) 9:40 AM EST (1/2)
Length of Visible Light 10h 04m
Length of Day
8h 58m
Waning Gibbous, 75% of the Moon is Illuminated
Jan 2
Waning Gibbous
Jan 4
Last Quarter
Jan 11
New
Jan 18
First Quarter
Jan 26
Full

Hourly Weather History & Observations

Time (EST) Temp. Windchill Dew Point Humidity Pressure Visibility Wind Dir Wind Speed Gust Speed Precip Events Conditions
12:15 AM 10.4 °F -4.1 °F -0.4 °F 62% 29.82 in 10.0 mi West 11.5 mph - N/A   Clear
12:35 AM 10.4 °F -3.3 °F -2.2 °F 57% 29.82 in 10.0 mi WNW 10.4 mph - N/A   Clear
12:55 AM 10.4 °F -4.1 °F -2.2 °F 57% 29.82 in 10.0 mi WNW 11.5 mph 19.6 mph N/A   Clear
1:15 AM 10.4 °F -4.8 °F -2.2 °F 57% 29.82 in 10.0 mi West 12.7 mph 20.7 mph N/A   Clear
1:35 AM 10.4 °F -4.8 °F -0.4 °F 62% 29.82 in 10.0 mi WNW 12.7 mph 20.7 mph N/A   Clear
1:55 AM 10.4 °F -4.8 °F -2.2 °F 57% 29.83 in 10.0 mi West 12.7 mph - N/A   Clear
2:15 AM 8.6 °F -6.3 °F -2.2 °F 62% 29.83 in 10.0 mi West 11.5 mph - N/A   Clear
2:35 AM 8.6 °F -2.6 °F -2.2 °F 62% 29.83 in 10.0 mi West 6.9 mph - N/A   Clear
2:55 AM 8.6 °F -2.6 °F -2.2 °F 62% 29.84 in 10.0 mi West 6.9 mph - N/A   Clear
3:15 AM 8.6 °F -2.6 °F -0.4 °F 67% 29.83 in 10.0 mi WNW 6.9 mph - N/A   Clear
3:55 AM 8.6 °F -7.7 °F -0.4 °F 67% 29.82 in 10.0 mi West 13.8 mph - N/A   Clear
4:15 AM 8.6 °F -7.7 °F -0.4 °F 67% 29.82 in 10.0 mi West 13.8 mph - N/A   Clear
4:35 AM 8.6 °F -6.3 °F -0.4 °F 67% 29.83 in 10.0 mi West 11.5 mph - N/A   Clear
4:55 AM 8.6 °F -4.7 °F -0.4 °F 67% 29.83 in 10.0 mi WNW 9.2 mph - N/A   Clear
5:15 AM 8.6 °F -5.5 °F -2.2 °F 62% 29.83 in 10.0 mi WNW 10.4 mph - N/A   Clear
5:35 AM 8.6 °F -4.7 °F -2.2 °F 62% 29.82 in 10.0 mi West 9.2 mph - N/A   Clear
5:55 AM 8.6 °F -4.7 °F -2.2 °F 62% 29.83 in 10.0 mi West 9.2 mph - N/A   Clear
6:15 AM 6.8 °F -5.9 °F -0.4 °F 72% 29.84 in 10.0 mi West 8.1 mph - N/A   Clear
6:35 AM 6.8 °F -3.5 °F -0.4 °F 72% 29.85 in 10.0 mi West 5.8 mph - N/A   Clear
6:55 AM 6.8 °F -2.0 °F 1.4 °F 79% 29.85 in 10.0 mi WSW 4.6 mph - N/A   Clear
7:15 AM 6.8 °F -3.5 °F -2.2 °F 67% 29.85 in 10.0 mi West 5.8 mph - N/A   Clear
7:35 AM 6.8 °F -2.0 °F 1.4 °F 79% 29.84 in 10.0 mi West 4.6 mph - N/A   Clear
7:55 AM 6.8 °F -3.5 °F 1.4 °F 79% 29.84 in 10.0 mi West 5.8 mph - N/A   Clear
8:15 AM 10.4 °F -2.4 °F -0.4 °F 62% 29.84 in 10.0 mi West 9.2 mph - N/A   Clear
8:35 AM 10.4 °F -4.1 °F 1.4 °F 67% 29.85 in 10.0 mi West 11.5 mph - N/A   Clear
8:55 AM 12.2 °F -3.1 °F 1.4 °F 62% 29.85 in 10.0 mi West 13.8 mph - N/A   Clear
9:15 AM 14.0 °F -1.4 °F 1.4 °F 57% 29.86 in 10.0 mi West 15.0 mph 19.6 mph N/A   Clear
9:35 AM 14.0 °F -2.5 °F -0.4 °F 53% 29.86 in 10.0 mi West 17.3 mph 21.9 mph N/A   Clear
9:55 AM 15.8 °F 0.9 °F 1.4 °F 53% 29.86 in 10.0 mi West 15.0 mph 21.9 mph N/A   Clear
10:15 AM 15.8 °F -1.1 °F 1.4 °F 53% 29.86 in 10.0 mi West 19.6 mph 24.2 mph N/A   Clear
10:35 AM 15.8 °F -0.2 °F 1.4 °F 53% 29.85 in 10.0 mi West 17.3 mph 21.9 mph N/A   Clear
10:55 AM 17.6 °F 2.7 °F 1.4 °F 49% 29.84 in 10.0 mi West 16.1 mph - N/A   Clear
11:15 AM 17.6 °F 2.7 °F 1.4 °F 49% 29.84 in 10.0 mi West 16.1 mph - N/A   Clear
11:35 AM 17.6 °F 2.2 °F 1.4 °F 49% 29.82 in 10.0 mi West 17.3 mph 32.2 mph N/A   Clear
11:55 AM 17.6 °F 1.3 °F 1.4 °F 49% 29.81 in 10.0 mi West 19.6 mph 25.3 mph N/A   Clear
12:15 PM 17.6 °F 0.5 °F 1.4 °F 49% 29.81 in 10.0 mi West 21.9 mph 27.6 mph N/A   Clear
12:35 PM 17.6 °F 2.2 °F 1.4 °F 49% 29.81 in 10.0 mi WNW 17.3 mph 21.9 mph N/A   Partly Cloudy
12:55 PM 17.6 °F 2.2 °F 1.4 °F 49% 29.81 in 10.0 mi WNW 17.3 mph 25.3 mph N/A   Partly Cloudy
1:15 PM 17.6 °F 2.2 °F -0.4 °F 45% 29.81 in 10.0 mi West 17.3 mph 26.5 mph N/A   Clear
1:35 PM 17.6 °F 1.3 °F 1.4 °F 49% 29.81 in 10.0 mi WNW 19.6 mph 31.1 mph N/A   Clear
1:55 PM 17.6 °F 3.7 °F -0.4 °F 45% 29.81 in 10.0 mi WNW 13.8 mph 27.6 mph N/A   Clear
2:15 PM 19.4 °F 6.0 °F -0.4 °F 42% 29.82 in 10.0 mi WNW 13.8 mph 26.5 mph N/A   Clear
2:35 PM 19.4 °F 5.5 °F -0.4 °F 42% 29.83 in 10.0 mi WNW 15.0 mph 27.6 mph N/A   Clear
2:55 PM 17.6 °F 1.7 °F -2.2 °F 42% 29.84 in 10.0 mi WNW 18.4 mph 25.3 mph N/A   Clear
3:15 PM 17.6 °F 2.7 °F -4.0 °F 38% 29.85 in 10.0 mi WNW 16.1 mph 26.5 mph N/A   Clear
3:35 PM 15.8 °F -1.5 °F -4.0 °F 41% 29.86 in 10.0 mi WNW 20.7 mph 24.2 mph N/A   Clear
4:15 PM 14.0 °F -0.2 °F -4.0 °F 45% 29.88 in 10.0 mi WNW 12.7 mph 19.6 mph N/A   Clear
4:35 PM 14.0 °F 2.9 °F -4.0 °F 45% 29.90 in 10.0 mi WNW 8.1 mph - N/A   Clear
4:55 PM 12.2 °F -1.0 °F -5.8 °F 45% 29.91 in 10.0 mi WNW 10.4 mph - N/A   Clear
5:15 PM 12.2 °F 0.7 °F -5.8 °F 45% 29.92 in 10.0 mi NW 8.1 mph 16.1 mph N/A   Clear
5:35 PM 10.4 °F -1.5 °F -5.8 °F 48% 29.94 in 10.0 mi WNW 8.1 mph - N/A   Clear
5:55 PM 10.4 °F -6.0 °F -5.8 °F 48% 29.93 in 10.0 mi WNW 15.0 mph 19.6 mph N/A   Clear
6:15 PM 10.4 °F -6.6 °F -7.6 °F 44% 29.94 in 10.0 mi WNW 16.1 mph 23.0 mph N/A   Clear
6:35 PM 8.6 °F -9.5 °F -7.6 °F 48% 29.95 in 10.0 mi WNW 17.3 mph 26.5 mph N/A   Clear
6:55 PM 8.6 °F -8.9 °F -7.6 °F 48% 29.95 in 10.0 mi WNW 16.1 mph 24.2 mph N/A   Clear
7:15 PM 8.6 °F -5.5 °F -7.6 °F 48% 29.96 in 10.0 mi WNW 10.4 mph 18.4 mph N/A   Clear
7:35 PM 8.6 °F -3.7 °F -7.6 °F 48% 29.96 in 10.0 mi WNW 8.1 mph - N/A   Clear
7:55 PM 6.8 °F -8.6 °F -9.4 °F 48% 29.96 in 10.0 mi West 11.5 mph - N/A   Clear
8:15 PM 6.8 °F -7.8 °F -7.6 °F 52% 29.96 in 10.0 mi WNW 10.4 mph 16.1 mph N/A   Clear
8:55 PM 6.8 °F -7.8 °F -7.6 °F 52% 29.96 in 10.0 mi WNW 10.4 mph 17.3 mph N/A   Clear
9:15 PM 6.8 °F -9.3 °F -9.4 °F 48% 29.97 in 10.0 mi WNW 12.7 mph 16.1 mph N/A   Clear
9:35 PM 5.0 °F -11.6 °F -9.4 °F 52% 29.98 in 10.0 mi WNW 12.7 mph 17.3 mph N/A   Clear
9:55 PM 5.0 °F -11.6 °F -9.4 °F 52% 29.98 in 10.0 mi WNW 12.7 mph 19.6 mph N/A   Clear
10:15 PM 3.2 °F -15.9 °F -9.4 °F 56% 29.98 in 10.0 mi WNW 16.1 mph - N/A   Clear
10:35 PM 3.2 °F -12.2 °F -7.6 °F 61% 29.99 in 10.0 mi WNW 10.4 mph - N/A   Clear
10:55 PM 3.2 °F -7.8 °F -7.6 °F 61% 29.99 in 10.0 mi NW 5.8 mph - N/A   Clear
11:15 PM 3.2 °F -12.2 °F -9.4 °F 56% 29.98 in 10.0 mi WNW 10.4 mph - N/A   Clear
11:35 PM 3.2 °F -10.3 °F -7.6 °F 61% 29.98 in 10.0 mi NW 8.1 mph - N/A   Clear
11:55 PM 3.2 °F - -7.6 °F 61% 29.98 in 10.0 mi Calm Calm - N/A   Clear